Theta_e
321 321 321 321 321 321 321 322 322 322 323 323 323 323 323 323 323 323 323 323 323 323 323 323 322 322 322 322 321 321 319 316 318 320 322 324 335 352 343 346 353 352 357 339 331 329 324 325 327 331 329 328 329 328 332 330 330 324 315 309 309 311 312 317 317 320 321 319 322 325 325 323 320 325 326 331 330 329 328 328 331 335 337 339 340 343 345 350
321 321 321 320 320 320 321 321 321 321 322 322 322 322 323 323 322 322 322 322 322 322 323 322 322 322 322 321 321 321 318 317 318 320 319 330 347 348 349 353 355 357 355 331 327 325 321 321 326 328 325 323 331 326 331 323 328 317 315 313 309 311 317 322 321 323 321 321 325 325 325 324 323 327 328 325 325 327 325 327 332 333 335 338 340 342 346 350
320 320 320 320 320 320 320 321 321 321 322 322 322 322 322 322 322 322 321 321 321 322 322 322 322 321 321 321 321 320 318 319 321 319 324 345 343 350 352 357 355 360 333 324 326 325 322 323 326 324 323 322 323 320 321 317 322 320 315 312 311 316 320 323 325 323 324 326 325 325 325 324 326 329 331 327 325 326 325 327 330 330 331 334 339 341 343 346
320 320 320 320 319 320 320 321 321 321 321 321 321 321 321 321 321 321 320 320 321 322 322 321 321 321 321 321 321 319 318 321 315 318 325 350 349 346 351 354 357 355 336 327 325 324 324 323 324 323 320 319 319 322 314 316 313 316 317 309 312 318 316 323 325 325 325 327 325 326 326 325 327 328 328 327 326 326 329 332 331 330 332 334 338 340 342 344
319 319 319 319 319 320 320 320 320 320 320 321 321 321 321 321 321 320 320 320 321 322 322 321 321 321 321 320 319 319 319 312 312 327 350 355 352 349 349 352 357 346 336 328 325 324 323 322 324 323 319 314 319 319 314 317 318 316 312 315 317 318 317 322 325 326 325 326 326 325 323 323 329 329 330 329 322 320 329 333 335 335 335 335 335 337 339 340
319 319 318 319 319 319 319 319 320 320 320 320 320 320 320 320 320 319 319 319 321 322 322 321 321 320 321 321 319 318 316 303 316 328 367 354 353 350 349 352 357 340 333 328 324 322 322 323 322 316 313 315 316 314 313 316 317 309 315 319 321 321 320 323 324 325 325 326 324 322 325 328 327 326 328 327 325 328 336 337 337 337 337 337 337 337 338 338
318 318 318 318 318 318 318 319 319 319 319 319 319 319 319 319 319 318 318 319 320 321 322 321 321 321 321 320 319 319 318 315 321 337 360 357 352 350 352 356 362 339 329 324 323 320 321 321 320 316 315 315 317 317 318 316 318 314 309 317 319 322 320 323 322 325 325 325 325 328 332 328 328 324 329 327 331 334 338 339 338 338 338 338 336 336 337 338
317 317 318 318 318 318 318 318 318 318 319 318 319 319 319 319 318 318 318 318 319 322 322 321 322 322 322 319 321 319 317 312 320 339 360 356 348 353 352 339 333 329 325 322 321 320 320 319 317 318 314 314 317 314 316 315 316 312 310 317 318 320 321 322 322 323 324 325 328 329 326 327 329 330 331 328 332 335 338 338 338 338 337 336 335 335 335 335
317 317 317 317 317 317 318 318 318 318 318 318 318 318 318 318 317 318 318 318 320 322 322 322 322 322 322 318 318 309 311 323 327 343 354 335 334 338 333 326 326 322 321 322 323 321 320 318 319 318 312 316 319 314 315 311 309 318 316 317 318 319 321 321 322 323 324 325 326 325 326 329 332 334 329 331 334 337 338 337 337 337 335 334 335 336 336 336
316 317 317 317 317 317 318 318 318 318 318 318 318 318 317 317 317 317 318 318 319 322 322 322 323 322 318 319 318 305 316 325 330 342 335 329 329 325 323 322 323 320 318 319 321 321 319 320 319 320 319 318 320 313 314 312 311 318 317 317 317 320 321 320 320 321 324 324 325 323 324 326 330 330 322 333 334 336 337 336 337 335 334 334 337 338 337 335
316 316 317 317 317 317 317 317 318 318 318 318 317 317 317 317 317 317 317 318 319 322 323 323 323 321 319 322 312 306 324 330 332 333 331 327 324 321 319 320 323 320 318 318 319 321 322 322 323 322 320 316 316 313 314 314 319 316 318 317 317 319 319 320 321 321 323 322 325 325 323 326 328 328 324 330 334 336 334 335 335 334 334 335 337 338 338 337
316 316 316 317 317 317 317 317 317 317 317 317 317 316 317 317 316 317 317 318 320 323 323 323 322 320 321 319 314 314 326 329 331 331 328 324 320 320 319 321 323 321 319 317 319 321 322 323 323 319 311 320 309 313 313 319 319 317 318 313 315 316 317 319 318 320 322 321 326 326 322 321 323 321 329 334 336 335 334 333 334 334 335 336 337 337 337 337
316 316 316 316 316 316 317 317 317 317 317 316 316 316 316 316 316 317 318 319 321 323 324 324 323 323 321 312 317 323 325 327 326 329 325 323 320 319 320 322 323 323 322 320 319 321 323 322 321 316 318 317 315 307 320 320 320 320 318 315 313 314 313 318 322 322 321 323 325 324 308 313 320 324 329 334 334 334 332 331 332 333 335 336 337 336 338 339
316 316 316 316 316 316 316 316 316 316 316 316 315 315 315 315 316 318 319 320 322 324 324 325 324 322 321 317 323 325 324 323 324 324 323 323 318 318 320 320 322 322 322 320 320 321 321 321 320 318 322 318 313 321 317 318 320 311 315 316 308 308 308 319 320 320 319 324 324 325 309 312 321 325 327 330 332 331 329 330 331 332 334 336 337 337 339 339
316 316 316 316 316 316 315 315 315 315 315 315 315 314 314 314 317 319 320 323 323 325 326 326 324 323 320 319 326 326 352 341 329 325 327 324 318 315 316 318 318 320 320 320 319 321 321 320 319 317 315 322 320 315 309 311 313 313 309 305 309 307 309 318 321 319 315 321 325 322 311 314 321 325 329 331 330 330 327 328 331 333 334 335 336 337 340 340
315 315 315 316 315 315 315 315 314 315 315 314 313 314 315 316 319 320 321 323 326 326 326 321 323 323 318 315 323 354 335 322 321 327 326 326 322 316 316 316 318 319 319 318 321 321 320 318 315 316 318 319 314 308 306 307 314 313 308 311 306 308 309 314 319 321 321 320 321 321 312 317 319 325 329 330 329 328 325 326 330 332 334 334 335 337 338 339
314 315 314 315 315 315 315 314 314 314 313 313 313 314 316 318 319 321 324 325 325 326 325 319 326 324 313 326 334 322 320 323 324 323 325 326 324 321 316 315 315 316 318 318 319 318 317 315 320 318 319 312 310 309 303 303 303 308 311 307 311 308 310 307 316 320 321 319 315 321 316 316 320 324 327 329 329 327 325 325 328 330 332 331 333 334 337 336
314 314 314 314 315 315 315 313 314 314 313 312 312 312 312 318 319 319 322 322 326 328 325 327 322 319 315 326 317 320 325 320 319 320 321 324 324 322 316 313 314 315 315 314 317 313 317 311 317 309 311 311 309 306 300 298 303 305 306 308 308 312 311 310 309 315 319 319 314 314 317 318 320 324 325 327 329 327 325 326 328 330 330 331 331 336 337 335
314 314 314 314 314 314 314 313 313 313 312 312 313 316 320 320 320 321 324 326 323 322 313 316 317 302 304 319 325 324 325 325 322 319 318 321 323 323 318 317 316 313 309 308 309 311 316 312 316 309 305 305 306 307 304 308 311 310 310 308 309 307 308 309 314 317 318 313 313 312 314 317 319 321 324 326 327 325 326 328 328 329 330 331 331 336 336 335
314 314 314 313 314 314 314 313 313 312 311 309 309 313 322 322 318 321 321 325 323 322 317 318 322 318 316 319 320 327 329 320 314 315 320 323 322 320 315 315 314 313 309 304 309 310 318 306 304 305 306 309 310 311 311 313 313 314 313 311 310 310 311 315 316 316 317 313 312 313 317 317 319 320 323 325 326 325 325 325 325 327 330 331 332 334 334 335
313 314 314 313 313 313 313 312 312 312 311 309 308 312 308 308 304 307 313 315 326 326 324 322 321 318 315 321 324 323 318 313 316 317 320 325 322 317 312 312 309 305 306 309 308 315 314 305 306 310 312 312 311 312 312 312 313 313 311 310 308 311 308 314 314 316 318 312 311 315 316 316 317 319 321 323 324 323 323 323 325 328 331 331 333 333 335 336
313 313 313 313 313 312 312 312 311 311 310 309 311 313 315 316 317 320 316 307 315 319 319 322 325 322 324 323 325 325 317 312 314 317 320 321 317 310 309 309 306 302 306 307 307 307 306 304 309 312 314 314 312 312 311 311 310 311 309 310 308 309 312 316 316 317 316 313 311 316 314 314 317 318 320 320 321 323 324 326 327 328 329 331 333 334 335 335
313 313 313 313 312 312 311 311 310 310 309 313 314 320 320 326 326 323 318 313 312 319 318 318 317 317 317 321 323 325 313 312 310 315 316 318 313 312 309 306 304 305 307 307 302 303 302 306 311 315 314 312 311 311 310 310 311 308 307 307 305 311 309 306 314 315 315 313 312 315 314 313 317 318 319 321 322 323 324 328 328 329 330 331 333 335 335 334
313 313 313 312 312 311 311 310 309 312 312 316 317 317 321 323 323 321 318 310 309 314 317 319 319 317 316 315 322 320 313 314 314 313 320 316 311 313 308 307 304 305 303 305 305 304 304 310 314 314 313 311 309 310 308 306 305 309 309 308 306 310 310 310 310 314 315 314 317 315 312 311 314 314 316 319 323 323 323 327 328 330 332 334 335 335 337 336
313 313 313 312 310 311 309 308 313 311 312 309 309 318 321 316 322 321 312 309 310 311 322 319 321 319 319 326 324 316 316 316 316 318 319 316 313 311 308 310 306 303 305 307 307 305 307 313 314 312 311 311 309 307 308 307 303 305 309 309 308 309 309 312 312 311 308 306 314 313 302 303 311 315 315 317 319 319 322 322 324 328 329 332 332 332 336 340
313 313 313 311 311 310 309 308 314 309 309 305 307 313 315 317 322 319 312 304 300 309 317 310 321 313 323 317 320 317 317 311 318 318 319 318 320 315 312 306 307 302 306 306 306 306 307 313 313 311 310 309 309 307 308 310 304 302 304 311 310 310 310 312 311 310 302 300 309 316 305 299 311 312 315 317 318 318 320 321 323 326 328 329 330 331 334 339
313 312 312 311 311 309 302 302 309 310 306 307 312 314 318 318 324 317 307 301 298 312 309 314 311 314 320 318 318 318 303 307 319 319 316 320 314 319 308 305 307 309 310 310 305 303 310 311 311 311 310 308 307 305 308 309 305 302 310 310 310 308 308 310 311 309 305 312 312 314 310 305 303 311 317 322 320 321 322 319 321 325 327 328 329 331 333 339
313 312 311 311 309 309 304 305 306 306 309 311 315 317 319 322 321 317 305 293 297 316 309 309 313 322 319 318 319 313 313 315 309 314 317 317 316 312 309 307 305 306 308 307 297 306 309 308 310 309 309 307 305 308 310 310 307 305 310 311 309 309 309 311 311 309 308 307 300 308 315 306 303 311 318 322 317 319 319 321 322 323 326 327 328 330 331 340
312 311 311 310 310 308 309 307 308 309 315 315 317 318 321 321 316 308 300 292 310 310 317 309 319 317 314 317 315 315 314 315 308 313 317 316 316 312 305 308 309 308 309 308 302 307 310 310 311 312 309 306 310 310 311 311 305 310 312 312 311 311 310 309 306 309 311 303 299 304 310 301 302 311 313 319 317 316 318 321 322 323 324 326 327 328 331 339
312 311 311 311 308 310 315 309 307 314 318 318 317 319 319 315 311 300 295 290 313 303 310 310 309 308 312 309 311 314 311 313 314 314 314 310 312 313 312 315 310 308 307 310 308 309 311 317 318 313 309 311 311 312 313 311 311 316 311 309 307 307 308 307 305 303 301 297 297 305 306 305 297 309 312 314 315 319 319 320 323 325 325 326 327 328 330 336
311 310 310 310 304 308 307 303 308 315 317 319 314 311 308 309 302 296 291 300 311 310 312 308 307 312 308 307 305 312 311 312 311 312 309 312 309 310 310 307 312 306 305 306 306 309 310 312 311 312 316 315 313 311 314 313 312 312 307 305 304 304 305 303 304 304 296 291 303 307 306 307 296 306 315 319 322 322 322 321 322 323 324 326 327 328 330 333
309 309 310 308 308 310 304 303 313 316 315 312 310 306 303 298 302 292 294 316 300 304 306 305 310 309 308 310 309 308 308 310 311 310 307 307 305 304 304 300 304 297 298 300 300 307 306 307 310 312 317 313 310 307 308 311 310 308 305 305 299 299 301 292 296 292 292 292 302 307 307 304 302 311 318 321 321 323 324 324 323 324 325 326 328 328 330 333
308 308 308 309 311 308 308 309 310 312 312 310 308 306 299 296 291 298 298 304 300 308 306 312 308 309 309 308 307 310 311 306 311 309 310 309 306 305 308 306 308 304 296 301 301 301 302 309 309 310 311 313 311 304 302 303 306 304 302 301 298 294 293 288 293 296 295 303 305 305 308 301 307 311 321 321 322 325 325 325 326 326 326 326 327 330 329 332
307 307 306 310 312 311 313 315 314 316 314 316 315 304 298 292 293 309 302 303 303 310 310 309 309 309 309 305 308 310 305 310 309 308 310 305 306 302 305 308 309 307 304 302 299 300 295 297 304 307 303 312 310 308 306 304 304 303 308 304 302 300 299 292 294 291 294 296 302 308 302 297 300 302 319 323 325 326 326 326 327 328 329 328 329 331 330 330
307 307 308 311 312 314 314 315 316 318 317 313 305 297 291 291 298 298 301 304 308 310 309 313 308 306 305 307 310 311 308 303 309 308 307 305 302 303 303 304 308 309 307 298 303 302 301 299 306 311 311 312 309 312 313 309 306 307 308 308 302 300 309 297 298 299 299 298 299 303 300 306 304 314 320 324 324 324 326 325 328 327 328 327 327 329 330 329
307 313 315 314 317 320 317 317 317 317 315 309 300 293 291 297 296 303 302 309 309 307 310 311 309 304 303 304 308 308 310 304 307 306 305 306 306 303 307 307 307 309 305 300 303 297 301 297 309 310 312 311 311 313 312 312 298 303 306 299 302 308 307 302 307 306 305 301 296 308 307 310 312 314 320 321 320 321 323 324 325 325 326 326 326 326 329 330
307 311 312 316 316 320 322 320 319 316 314 308 299 292 298 301 305 305 310 306 308 310 306 301 305 303 301 301 303 306 306 307 306 305 300 307 303 306 306 307 310 309 310 306 303 306 297 298 310 308 307 311 314 313 313 313 312 306 300 303 312 313 310 307 297 302 297 293 296 301 298 300 302 301 317 317 317 319 320 322 323 323 324 324 325 325 327 328
306 309 313 315 319 322 324 322 319 315 311 305 298 302 303 300 307 306 309 308 308 308 304 302 304 308 302 302 302 305 306 302 302 305 302 305 301 310 307 306 310 310 311 312 304 304 305 297 304 310 310 312 313 312 310 313 314 306 306 313 305 297 298 305 302 294 293 293 295 300 305 304 303 308 312 312 315 316 316 318 321 320 322 323 323 324 326 328
307 309 310 318 326 325 324 324 318 313 307 301 298 297 302 303 307 307 309 309 309 306 302 305 302 307 306 302 304 306 306 300 304 303 301 303 300 307 307 308 307 310 311 311 306 306 307 298 301 310 310 310 311 309 300 304 310 313 313 308 311 305 303 301 300 300 298 293 297 295 301 297 312 307 311 311 313 313 313 313 316 317 319 323 323 325 327 327
308 304 302 313 326 324 326 321 313 310 304 297 298 298 304 302 306 308 309 308 306 305 304 304 307 305 307 306 307 303 306 305 304 303 304 304 304 309 307 310 307 309 311 312 308 310 303 305 297 304 311 310 302 305 303 303 300 303 303 303 305 305 307 304 306 300 296 293 292 295 294 302 306 312 312 314 314 314 315 314 315 316 318 318 322 326 327 330
309 306 304 319 324 327 323 316 307 303 302 303 303 301 302 302 306 308 310 311 309 311 306 306 306 304 307 306 306 308 305 305 305 303 304 304 305 298 309 309 310 308 311 310 308 307 303 303 298 303 304 302 303 309 310 309 307 303 302 301 301 300 299 294 293 305 303 296 290 294 295 304 312 326 317 316 316 317 318 315 314 314 313 319 324 327 328 329
306 300 304 319 325 324 316 305 304 307 304 301 299 302 301 312 305 306 308 310 310 308 312 308 309 308 307 307 308 308 307 305 305 304 306 303 307 306 308 312 311 311 308 304 305 309 308 312 303 299 303 303 307 311 313 312 311 309 307 305 306 303 303 298 289 296 303 302 305 301 297 301 311 317 315 315 316 316 318 317 315 315 314 320 328 329 329 330
304 300 312 314 313 320 312 304 307 306 302 304 308 306 306 305 305 307 306 308 307 310 308 308 308 308 309 308 309 308 309 307 308 304 306 307 307 309 311 311 312 311 310 306 308 309 330 305 307 306 307 308 310 312 312 313 311 308 308 309 306 303 303 300 299 305 299 302 297 298 297 300 310 316 313 315 317 316 316 315 314 317 314 316 323 330 329 331
302 302 306 314 317 316 311 302 302 303 304 306 306 305 307 306 305 305 305 307 306 307 306 308 310 312 309 312 310 307 311 304 311 308 306 308 306 312 311 311 312 309 308 306 304 309 303 305 303 302 298 298 303 307 307 310 310 305 304 306 307 308 307 306 306 314 302 302 301 296 291 299 313 323 314 314 314 314 314 314 315 315 316 318 318 323 331 333
302 307 307 312 317 311 303 308 305 303 304 304 303 302 304 305 307 307 306 306 309 308 307 306 310 311 310 311 309 309 310 308 305 310 310 308 308 312 312 311 312 309 312 315 328 313 305 308 302 294 292 290 291 291 293 298 302 305 307 307 307 307 306 303 299 302 293 301 303 298 300 304 313 313 312 311 312 315 313 314 316 318 314 321 324 321 331 335
303 297 306 311 314 308 304 310 310 306 304 304 303 305 305 303 306 308 308 307 308 308 308 308 310 311 309 309 307 307 307 310 307 308 310 308 309 311 313 313 312 311 323 336 329 313 309 311 309 300 298 295 298 300 308 309 304 302 305 307 306 308 308 305 303 299 294 295 298 295 305 305 310 312 311 310 313 311 313 315 318 320 326 321 320 323 323 331
305 301 304 297 304 307 306 306 306 307 303 306 299 304 303 305 306 306 310 304 308 307 307 308 309 308 308 308 306 305 307 307 310 309 310 312 315 315 315 313 313 318 338 332 332 312 309 303 308 308 305 305 313 315 310 310 305 306 305 305 307 306 306 305 301 299 304 299 290 299 305 306 308 310 310 311 312 313 314 316 319 320 318 322 328 328 332 333
300 306 304 304 296 294 299 300 304 301 305 307 302 305 302 303 306 304 310 311 311 309 305 308 309 309 309 307 307 303 305 305 309 307 313 315 313 315 314 314 312 325 332 320 324 312 310 303 307 310 310 311 310 308 309 309 309 308 307 307 306 306 305 303 304 307 310 301 297 303 306 307 310 311 313 313 315 315 314 315 316 318 324 326 322 325 327 332
307 304 303 306 298 300 300 301 303 303 303 306 306 308 302 302 303 307 308 308 310 307 308 303 306 308 309 310 307 305 312 306 309 316 316 310 312 310 311 312 317 327 318 313 313 311 310 305 311 307 308 307 306 307 308 307 308 308 307 307 307 306 306 306 305 306 309 310 309 311 310 311 312 312 314 315 320 317 317 317 318 316 321 322 323 325 325 326
301 300 298 302 301 300 302 304 303 302 301 308 305 306 307 304 302 306 309 308 306 308 310 306 306 308 308 309 309 312 311 313 310 311 317 313 309 316 311 311 310 316 315 311 311 319 306 309 310 307 305 307 306 308 307 306 309 304 307 308 308 307 307 306 307 307 308 306 315 311 309 311 315 316 315 317 319 317 317 315 319 321 320 320 323 323 323 323
306 308 304 298 296 299 303 303 303 302 300 303 304 307 307 307 306 308 307 311 309 308 310 307 308 308 309 308 313 312 315 314 314 313 314 312 307 314 311 311 313 310 311 310 310 316 308 308 310 308 302 303 306 305 305 306 305 304 305 306 306 306 305 308 306 306 306 305 306 310 306 305 311 316 320 318 317 316 315 316 316 318 319 321 319 321 322 328
308 310 309 303 296 303 300 304 305 304 298 303 306 306 307 308 310 311 308 312 313 313 312 310 311 308 306 307 312 313 315 316 315 316 316 315 315 314 314 315 314 310 313 313 311 308 305 306 302 303 298 300 304 305 305 305 303 300 301 304 306 306 308 309 309 311 310 309 305 308 307 312 316 318 313 315 318 319 319 321 322 321 322 323 322 324 327 328
Wind_Speed
22 23 23 21 21 22 23 23 21 21 21 20 19 19 19 19 20 22 22 21 21 20 19 18 17 17 16 16 17 16 15 9 9 4 7 16 6 4 1 2 7 9 8 1 3 3 6 7 9 10 9 4 4 5 9 9 8 6 4 4 5 9 6 8 9 5 5 6 5 7 10 12 10 7 7 9 8 10 9 16 15 16 12 15 17 17 17 20
23 22 21 22 23 22 22 21 20 20 20 20 19 19 20 19 20 20 22 22 22 21 19 18 16 15 15 16 15 15 12 6 7 10 16 12 13 19 12 5 6 8 5 1 4 5 8 9 10 9 8 5 6 7 10 5 7 4 2 4 6 5 9 7 6 6 4 9 10 7 9 9 10 9 7 7 8 6 12 13 16 19 18 17 15 15 18 18
23 23 23 22 23 22 23 24 22 21 21 21 21 19 19 20 19 19 21 22 22 20 20 18 15 14 14 14 13 13 9 6 6 12 20 20 20 15 11 10 9 10 6 3 5 8 9 10 10 8 6 8 7 8 7 2 4 3 2 1 4 10 15 13 8 6 5 9 11 9 8 9 11 9 7 9 8 7 12 15 17 18 18 16 16 15 14 14
22 23 24 24 22 22 23 22 22 21 21 21 21 20 20 21 20 19 19 21 21 20 19 17 14 14 14 14 12 10 6 6 5 6 1 5 20 20 13 11 10 10 4 6 7 8 9 12 14 13 7 8 5 7 4 3 2 2 2 3 4 9 10 17 15 11 5 8 10 11 9 10 5 5 6 11 8 11 13 14 18 18 18 17 16 17 14 15
23 23 23 23 23 23 23 24 22 22 22 21 21 21 20 20 20 19 19 20 20 19 18 15 13 13 12 11 11 6 6 3 4 5 4 10 16 19 15 12 12 8 8 3 4 9 10 12 11 11 8 3 8 8 6 6 5 2 3 6 9 8 10 13 15 11 5 11 12 9 8 9 6 8 10 9 8 6 11 15 17 18 17 17 15 14 13 15
23 23 24 24 24 24 25 24 23 23 22 21 21 22 21 20 20 19 20 19 19 18 16 14 12 12 13 10 8 6 1 1 4 5 7 6 12 16 15 13 12 7 4 4 5 6 9 9 8 8 5 5 5 6 3 5 3 2 4 15 12 11 10 7 11 12 9 13 9 6 10 8 9 9 6 9 4 7 16 18 17 16 16 16 13 11 15 14
24 24 23 22 23 23 23 23 22 22 21 20 21 20 21 20 19 18 19 18 18 17 15 13 11 11 11 11 5 2 2 10 10 1 8 8 9 13 12 9 7 4 4 6 7 7 6 9 8 7 8 8 12 9 12 5 6 2 3 8 10 15 11 10 10 10 6 12 13 12 11 10 8 8 3 9 3 10 20 18 17 15 15 14 14 12 15 14
24 23 23 24 24 23 24 23 23 22 21 21 20 21 21 21 20 18 19 18 17 16 14 11 10 9 10 6 2 2 3 9 15 2 6 10 10 9 9 6 7 4 5 9 8 9 8 9 9 8 9 9 7 6 8 2 4 6 3 1 11 7 9 9 8 11 14 14 14 12 11 10 8 7 5 8 9 16 17 17 17 16 14 13 10 11 11 10
24 23 23 22 23 23 22 22 22 22 21 20 20 21 22 21 19 19 18 18 16 15 13 10 10 9 6 3 3 5 9 13 15 7 9 10 10 9 8 5 6 7 5 8 9 9 7 6 10 9 6 7 9 9 2 3 3 7 6 5 5 11 11 8 12 13 11 9 11 12 12 11 12 10 10 10 13 17 17 16 16 16 14 12 11 10 9 7
23 23 23 23 23 25 25 24 22 22 22 23 21 21 21 20 20 19 18 17 16 13 11 10 8 6 4 2 4 3 10 12 6 12 10 10 10 9 8 5 9 7 6 8 8 10 10 8 11 9 13 13 9 6 5 4 1 5 8 5 3 11 11 8 14 13 13 11 11 12 11 11 7 5 6 7 10 14 16 15 15 14 13 12 11 11 9 10
22 24 23 23 23 24 24 23 23 23 22 22 22 22 20 20 20 19 18 17 14 11 10 8 6 5 3 4 3 8 8 4 6 8 11 10 11 9 11 8 10 8 9 7 11 11 10 12 14 10 8 5 8 1 3 3 6 6 6 6 7 8 8 12 17 17 14 10 12 11 12 11 10 6 7 8 10 12 14 15 14 13 12 11 14 11 8 8
24 24 23 23 24 24 24 25 24 23 22 23 23 21 21 21 22 20 19 15 13 10 9 6 5 4 4 3 7 11 7 4 1 7 9 10 9 11 12 9 9 9 9 9 11 9 12 13 14 10 6 7 3 6 2 4 8 8 8 5 6 4 10 13 13 13 12 12 14 11 11 9 7 10 9 9 10 11 11 12 12 12 11 11 13 11 9 7
25 24 24 24 24 25 24 25 25 24 24 23 23 21 21 21 21 21 17 13 9 8 6 6 3 3 3 4 11 18 17 14 8 6 7 7 5 5 6 8 9 11 10 10 9 11 13 12 12 12 10 6 5 2 2 7 5 11 4 4 4 3 7 9 14 16 13 11 15 10 6 4 9 11 11 11 11 10 12 8 10 9 11 10 12 11 9 8
25 25 24 25 24 25 24 24 25 25 24 24 23 22 21 20 22 20 14 10 9 10 7 6 5 3 2 7 7 6 12 12 17 14 11 8 8 7 7 8 10 9 9 10 12 8 8 9 13 11 7 9 3 1 2 1 8 7 7 7 5 5 3 12 9 14 10 13 17 9 8 6 10 10 12 12 13 12 10 10 9 10 10 11 10 10 7 8
23 24 25 25 25 26 26 26 26 25 26 24 24 24 24 22 21 17 12 8 8 11 6 3 5 2 2 8 10 20 21 12 11 12 6 11 8 6 9 8 10 9 9 9 7 9 9 12 8 5 6 7 7 4 3 1 3 3 4 5 3 5 4 9 7 9 10 10 15 11 6 7 9 10 12 11 11 13 9 9 10 9 10 11 9 10 7 8
22 23 25 25 26 25 24 24 24 25 25 25 25 27 25 19 17 13 10 9 7 6 2 3 6 4 6 10 7 4 2 6 11 6 4 5 9 8 9 9 7 9 8 8 8 7 9 6 6 4 6 9 9 3 2 3 1 2 5 3 2 6 4 8 6 7 9 7 8 11 7 9 6 10 11 11 12 12 11 11 11 12 13 11 10 10 8 8
22 23 24 26 27 27 28 26 24 26 26 26 28 28 22 15 12 8 6 5 5 4 4 2 3 7 2 3 9 5 6 9 6 4 6 7 8 8 10 8 8 9 8 8 9 7 8 8 1 3 4 5 4 3 3 2 2 2 5 3 5 7 7 2 8 10 13 7 6 13 11 7 9 11 11 12 11 11 10 11 12 12 11 10 11 10 10 9
23 24 25 26 27 27 26 24 25 25 26 27 25 24 21 20 6 2 5 3 4 4 6 8 6 4 10 10 7 9 7 6 9 8 9 7 9 10 9 8 5 8 6 8 8 9 4 6 3 3 3 5 6 4 6 7 6 6 5 2 2 1 6 4 7 7 11 10 5 6 10 13 12 10 10 10 11 10 8 8 11 11 11 11 11 9 10 8
26 25 27 28 28 28 25 26 25 25 24 27 22 23 8 5 1 4 1 4 3 1 1 4 4 5 4 6 15 9 7 7 7 9 10 10 10 8 8 5 5 7 5 5 3 9 2 3 2 3 6 6 7 9 7 8 11 16 14 9 7 8 6 7 8 7 11 8 10 6 11 12 12 10 10 9 11 11 8 6 7 6 10 10 9 10 10 7
26 25 26 26 27 25 25 25 25 22 21 19 16 11 1 2 0 1 1 3 6 9 13 8 12 9 13 17 9 9 13 8 8 10 8 10 9 9 9 7 6 6 6 7 4 11 1 5 5 7 8 9 11 12 11 10 15 14 15 11 12 12 9 10 9 7 10 7 9 8 15 15 12 12 11 11 10 11 11 10 7 7 8 8 8 11 10 9
24 24 25 25 26 26 25 28 25 22 17 10 10 3 4 6 8 5 4 8 13 14 14 15 13 15 16 14 12 7 9 9 8 10 10 8 9 6 8 8 7 8 7 7 7 5 6 6 8 9 11 12 12 10 11 9 9 15 14 13 11 13 10 14 12 9 11 5 6 10 15 13 12 11 11 10 10 13 14 11 9 10 9 6 10 10 10 9
24 24 24 24 26 26 27 26 28 22 18 6 3 3 6 9 8 10 9 11 11 12 13 16 15 17 15 16 18 14 6 6 10 11 8 12 9 9 7 9 8 8 7 6 7 5 8 9 8 10 12 13 13 11 10 9 10 9 7 10 9 10 8 14 13 13 12 8 7 12 12 11 13 11 12 11 9 10 12 13 12 12 10 6 9 9 10 9
25 24 23 24 25 27 28 30 27 24 6 3 3 6 7 10 9 8 9 9 14 13 12 15 16 17 16 14 14 10 11 8 10 11 10 11 9 13 10 10 8 8 9 9 9 6 8 9 11 13 12 13 13 14 9 10 11 8 6 7 9 12 9 9 12 14 11 5 10 13 11 9 10 9 12 11 11 6 12 16 15 14 14 11 9 9 11 10
26 24 23 23 24 26 30 28 29 8 4 7 10 13 13 13 14 11 8 4 11 18 15 15 14 13 14 14 7 13 13 9 9 13 8 12 8 11 6 14 9 9 9 12 13 8 6 4 9 13 14 14 14 13 10 7 7 10 9 8 4 15 13 13 10 14 12 5 12 10 7 6 7 8 7 10 12 10 11 15 13 13 14 13 11 10 13 11
25 24 24 24 24 26 28 27 9 6 12 14 11 12 9 8 9 12 8 6 7 11 11 13 11 10 13 9 10 10 11 4 12 7 8 12 10 9 7 8 5 10 9 12 13 12 10 10 10 15 13 13 13 9 13 9 7 6 9 4 4 6 5 14 16 14 7 5 11 15 3 4 7 10 10 7 8 9 9 12 14 14 14 14 14 13 14 12
26 25 24 22 23 24 30 9 3 11 14 11 10 9 12 11 10 11 5 3 9 8 4 10 9 10 7 11 7 7 14 9 11 9 10 12 9 7 5 7 5 9 14 12 12 7 7 10 12 14 15 11 13 10 9 12 7 7 6 6 6 4 7 6 14 12 8 9 10 16 11 4 4 9 9 7 7 10 7 12 12 15 15 15 14 13 14 15
26 25 22 22 19 20 11 4 7 13 9 7 8 14 11 12 6 10 3 3 7 6 10 6 12 2 8 9 9 7 10 7 7 8 13 12 12 6 5 6 8 5 8 5 5 9 8 12 15 13 13 13 11 12 8 10 9 8 3 7 6 5 11 12 14 13 4 5 8 14 11 8 5 10 8 6 6 5 5 10 10 13 15 16 14 15 14 16
26 24 23 20 18 10 6 8 11 6 10 12 11 12 13 8 9 4 2 4 5 4 7 3 3 4 6 12 12 10 2 8 9 10 11 16 12 8 9 8 10 12 9 8 10 5 12 10 16 17 14 10 9 8 9 8 10 4 7 7 9 7 14 5 14 10 7 12 6 10 9 5 3 6 6 8 6 7 9 8 7 11 15 14 14 14 15 18
25 24 22 21 20 25 12 7 4 9 7 6 11 13 10 12 7 1 2 3 8 4 4 8 5 4 2 11 15 10 10 6 8 9 9 16 17 4 10 9 8 11 13 11 7 7 8 13 12 16 12 11 7 6 10 8 4 7 10 6 4 4 6 6 6 10 1 7 5 6 11 5 3 5 7 5 8 12 13 13 9 7 13 14 15 13 15 17
26 24 24 19 17 8 2 6 10 14 8 11 12 13 13 8 1 2 2 6 3 2 2 3 2 10 8 10 12 12 13 7 7 9 11 12 14 12 6 5 8 8 11 12 13 9 9 13 13 10 12 7 7 13 10 7 5 1 4 9 6 5 3 2 7 5 4 2 6 7 6 7 3 7 13 9 13 16 13 7 6 7 11 14 16 14 14 16
25 25 21 15 7 4 6 8 14 13 11 8 11 13 7 3 2 2 5 7 6 4 5 5 6 9 10 12 11 13 13 8 11 9 12 11 12 12 5 7 8 6 7 8 11 14 13 9 12 4 8 10 11 13 12 8 7 9 4 7 4 6 5 3 4 3 1 3 2 1 4 5 6 5 10 18 20 20 16 17 17 15 15 16 14 13 15 15
28 27 24 11 11 5 7 8 1 6 7 12 12 7 3 2 3 5 6 2 9 6 10 5 9 10 12 12 10 13 12 10 8 12 11 11 9 11 10 7 5 6 7 8 8 8 13 10 5 8 6 13 14 11 9 9 4 8 6 2 3 1 1 2 2 3 1 3 3 3 5 9 8 11 19 22 16 17 18 16 16 15 13 13 11 12 13 14
29 28 30 19 13 10 15 20 10 8 11 10 4 3 2 2 5 8 10 6 4 8 6 9 12 12 11 13 11 13 12 11 11 9 12 14 8 12 11 13 7 7 4 8 8 9 8 10 8 10 6 5 5 12 3 7 7 5 6 3 2 2 0 1 0 1 4 4 5 9 6 9 2 2 22 22 20 21 18 14 16 16 13 11 11 11 12 15
29 29 15 8 10 14 11 9 8 6 7 4 1 3 2 5 7 8 15 12 15 10 7 7 14 13 14 11 11 10 11 11 12 9 15 10 12 9 12 16 16 10 8 5 11 8 7 10 11 10 7 8 6 5 6 4 6 5 7 5 6 4 3 4 3 6 8 8 8 13 8 3 4 2 12 24 19 11 13 14 13 15 15 14 14 12 12 13
34 26 13 10 10 14 16 12 7 9 5 3 3 4 6 8 5 9 12 13 11 13 18 18 8 13 11 10 9 13 7 8 15 10 14 12 12 8 12 12 17 12 8 6 6 4 10 6 6 11 4 13 12 7 8 9 7 7 8 8 4 6 2 3 5 6 6 4 6 4 6 6 6 4 3 18 13 14 14 15 12 12 11 10 9 11 12 10
22 7 8 8 6 8 13 10 10 9 5 3 4 5 10 8 8 10 10 10 12 12 15 16 16 14 8 10 8 13 15 6 14 11 11 13 12 12 10 10 12 15 7 8 3 7 4 6 8 22 9 17 16 12 10 6 6 5 8 8 5 3 5 4 3 7 5 5 4 2 1 0 1 5 6 15 16 16 16 14 13 13 15 13 11 10 12 13
10 13 7 6 11 9 11 12 10 9 5 4 4 9 9 10 15 14 10 15 11 13 12 13 2 6 9 8 8 12 12 13 10 10 5 12 10 14 12 11 14 13 17 8 3 5 4 5 1 11 12 6 11 10 14 11 3 2 6 5 2 8 3 3 4 1 4 3 3 6 9 3 4 4 4 20 14 17 13 13 16 17 15 13 11 8 11 14
11 9 12 12 18 11 12 14 12 7 5 5 8 9 6 13 13 18 16 17 18 17 13 11 4 8 7 9 10 12 12 12 8 10 5 15 4 15 13 10 17 16 13 16 5 5 8 3 7 13 13 10 10 12 12 9 9 7 9 13 9 7 10 2 1 1 3 4 2 2 2 2 8 5 9 9 15 14 11 14 16 11 10 12 10 9 11 14
6 4 9 11 6 12 14 15 10 8 4 6 8 8 10 14 14 17 13 13 14 15 14 12 10 8 11 9 9 13 12 13 9 9 7 8 8 16 17 9 12 19 16 16 11 5 4 5 3 13 15 9 10 10 9 7 5 7 2 4 11 1 4 3 5 3 4 2 1 3 1 1 1 8 13 14 15 14 9 9 12 16 14 14 14 13 10 12
7 5 6 8 8 11 16 13 6 5 5 9 8 10 5 12 15 18 18 16 13 9 10 13 14 12 10 9 7 10 12 15 11 7 11 7 10 16 16 17 8 19 21 18 12 10 7 5 2 6 17 10 8 7 9 6 5 5 5 2 5 4 2 1 1 5 6 3 2 2 1 2 7 7 12 10 10 10 10 9 8 6 5 7 14 13 11 9
5 4 7 4 13 14 12 7 4 7 7 6 10 12 14 13 11 14 16 19 15 13 15 16 14 13 11 8 12 9 6 13 12 8 9 10 12 6 13 15 12 14 20 19 16 11 4 4 6 4 11 8 4 11 10 9 6 3 7 6 4 7 5 5 7 2 2 4 3 3 3 2 4 2 6 11 13 12 10 11 6 5 5 7 6 7 9 9
4 5 4 8 9 13 8 7 5 5 6 10 9 10 12 10 14 16 16 15 17 13 13 15 19 16 13 10 7 6 6 6 13 11 10 9 14 10 9 18 18 12 14 12 13 10 7 2 5 6 9 9 7 15 15 11 8 4 7 8 6 2 2 2 3 4 2 3 4 4 2 1 3 3 7 9 9 11 11 10 11 8 6 6 11 10 10 10
4 10 15 23 13 10 6 6 5 6 9 9 12 17 16 14 13 11 14 14 14 13 13 12 13 14 12 10 8 7 7 4 5 12 8 15 13 17 14 24 17 18 12 10 11 12 9 5 3 3 4 9 11 10 18 15 11 10 10 11 8 8 3 4 5 5 5 2 5 2 2 4 5 2 7 7 6 9 9 8 8 3 6 7 8 7 6 5
7 9 10 9 6 8 8 8 6 8 8 12 15 16 13 14 14 14 14 15 11 10 12 10 12 12 8 5 5 9 5 5 5 7 13 8 10 21 17 25 21 14 14 7 9 10 8 5 3 1 3 5 7 4 10 14 12 5 2 8 10 10 12 9 4 0 3 5 7 7 4 3 3 1 5 7 10 10 9 7 6 7 9 9 10 11 10 8
8 7 9 8 5 3 9 7 8 8 9 12 13 15 15 13 11 16 15 15 14 15 12 12 12 7 8 8 11 8 6 5 7 8 7 7 7 19 19 24 24 14 16 12 17 9 10 3 7 5 4 6 7 7 6 10 10 5 6 5 9 15 12 9 10 1 3 4 5 3 1 3 3 7 7 9 7 6 6 7 6 7 8 9 6 8 8 9
3 5 5 4 2 5 7 9 11 9 9 10 12 12 15 15 13 14 15 17 18 19 19 17 13 11 13 14 12 9 10 7 10 5 4 3 5 6 13 23 24 16 20 20 22 9 5 4 4 8 10 6 9 5 4 5 7 8 7 13 7 11 13 7 5 4 7 4 6 5 11 6 5 6 6 8 7 8 7 5 6 6 4 6 10 8 8 8
5 4 5 7 9 3 6 8 11 11 10 9 8 8 14 15 13 12 14 11 12 16 13 12 6 9 9 11 11 12 11 11 9 6 3 7 6 10 12 17 19 24 20 19 20 7 4 5 7 8 9 10 7 2 7 14 8 13 14 14 15 10 10 14 9 10 7 6 7 4 17 13 12 7 10 9 7 7 7 9 8 6 7 7 6 8 9 6
3 2 8 7 4 5 9 8 10 14 17 14 11 13 16 16 13 11 8 12 16 14 9 7 12 13 16 16 13 13 13 10 4 3 8 5 10 15 14 9 17 20 19 8 13 7 4 5 7 9 9 11 9 11 6 9 11 9 15 15 18 19 12 12 8 5 8 8 9 6 18 16 16 15 12 11 9 9 12 9 8 9 5 3 4 5 5 7
6 6 5 11 6 7 8 14 18 17 18 14 8 13 17 17 16 12 9 9 13 10 6 8 13 15 15 14 11 7 6 6 2 4 3 8 7 7 7 16 5 21 18 10 11 5 3 3 2 2 2 4 6 9 7 6 5 5 5 13 12 15 18 14 10 7 8 6 9 9 11 11 10 10 12 12 9 8 6 7 7 7 6 4 3 5 6 6
6 8 7 9 8 11 11 9 11 13 11 12 10 11 12 13 17 15 13 9 7 13 5 11 15 15 15 15 11 1 4 8 8 5 4 4 8 0 3 4 4 12 13 10 6 1 8 1 6 2 1 3 5 13 11 5 2 6 5 5 7 6 7 10 12 13 10 6 6 13 11 10 12 15 14 8 8 11 9 9 9 7 6 5 4 3 2 1
7 5 6 9 11 6 8 8 8 10 10 11 9 10 12 14 13 12 11 8 10 13 11 14 14 15 14 17 6 5 6 7 7 11 10 8 5 3 2 10 10 8 13 8 8 2 9 1 0 2 0 2 4 7 6 8 8 11 9 7 6 6 6 3 4 4 5 7 9 6 9 8 5 7 7 10 9 10 10 8 7 6 4 4 2 1 0 3
8 7 8 7 8 7 9 9 10 9 8 8 13 14 11 12 15 12 7 9 13 13 12 11 17 15 12 9 7 8 8 8 8 10 7 7 8 9 5 9 15 5 3 1 7 6 5 3 2 3 1 2 4 6 6 4 7 11 12 7 5 7 8 7 4 4 10 15 13 10 12 8 8 9 10 5 9 6 5 6 9 7 7 6 4 2 2 0
Wind_Direction
351 350 349 346 346 347 345 345 343 343 342 342 341 340 337 337 336 334 333 332 331 330 329 328 326 323 321 320 323 322 326 318 316 272 225 239 243 247 237 106 187 182 145 158 287 272 280 259 251 233 242 233 234 227 235 231 233 229 175 151 200 178 142 155 124 166 159 119 100 110 97 108 116 126 135 149 124 137 133 101 121 132 109 115 114 124 121 119
350 348 346 346 346 346 344 343 342 340 340 339 340 338 336 335 337 334 333 331 330 329 329 329 327 325 322 322 322 323 325 293 284 265 240 237 195 242 239 202 158 165 141 198 228 239 248 267 249 230 220 227 219 228 224 217 216 202 238 135 212 101 139 148 132 149 147 128 151 134 130 114 111 142 166 134 155 129 108 108 103 98 104 110 120 119 118 121
348 347 346 345 345 342 343 342 340 339 338 338 337 336 336 335 335 334 333 330 328 329 328 328 326 325 323 322 320 324 323 301 256 260 258 238 220 215 214 190 171 156 179 193 215 233 249 261 279 281 237 231 220 237 201 243 157 218 189 143 117 100 128 120 126 106 120 132 121 122 105 121 155 145 173 109 108 123 105 108 106 114 125 127 125 122 127 125
348 346 345 344 340 341 341 340 340 338 336 336 335 335 335 335 332 333 332 330 327 327 327 326 325 323 320 319 327 319 296 266 273 255 241 320 198 202 184 177 168 175 210 252 268 282 287 296 289 267 258 244 245 229 186 240 106 224 220 184 124 115 119 132 141 161 162 115 100 87 89 87 76 85 130 122 97 88 109 115 129 132 130 132 132 137 143 135
346 345 343 341 340 339 338 339 339 337 335 333 333 333 335 333 331 330 330 329 327 326 325 324 326 324 321 319 325 314 308 8 263 159 342 298 190 184 178 169 166 177 200 255 287 260 265 267 277 282 281 241 243 244 210 194 192 19 309 108 117 112 94 118 132 121 125 104 110 130 116 71 69 64 81 97 125 159 130 131 124 130 131 134 138 143 133 129
344 343 343 341 339 339 338 337 337 336 333 332 331 332 333 331 329 329 329 328 327 326 325 322 323 324 317 319 310 297 325 196 330 345 349 336 161 163 166 162 171 177 190 241 243 272 267 264 256 270 272 261 256 250 254 198 122 117 90 79 82 84 90 98 118 148 148 130 122 117 91 98 78 84 77 79 80 146 126 127 128 127 132 131 138 146 132 139
343 343 341 339 338 337 336 334 333 333 332 330 329 329 330 329 326 326 326 326 325 324 322 320 319 323 320 303 273 294 271 275 307 295 71 84 116 144 150 149 148 173 204 228 241 244 243 253 266 255 253 252 255 238 236 157 144 100 56 120 119 120 132 152 131 114 114 116 110 105 102 102 114 94 119 100 68 86 113 119 124 127 128 136 147 153 142 149
342 341 340 338 336 334 333 332 332 331 331 329 325 327 327 325 325 322 324 322 322 322 322 320 321 323 338 319 262 263 203 254 250 220 121 120 116 120 132 130 153 168 205 223 228 233 246 258 249 247 253 251 257 264 193 245 128 121 151 178 106 108 108 99 109 89 88 92 112 120 117 115 109 106 108 120 119 107 114 121 125 131 133 138 144 147 135 136
340 339 338 335 333 333 331 330 330 329 326 326 325 323 326 324 320 319 321 320 317 318 316 315 317 315 323 308 279 311 261 242 242 142 157 136 144 138 157 158 172 178 209 225 237 249 252 249 252 255 282 273 264 277 159 54 12 79 81 82 110 113 120 138 106 106 96 87 82 95 108 113 117 130 88 92 93 109 116 122 131 131 137 142 147 122 119 129
338 337 337 334 331 332 331 329 326 326 325 326 324 322 322 319 316 315 318 317 313 310 311 314 312 326 309 280 263 252 257 237 162 149 170 148 143 153 175 198 163 195 207 223 233 239 238 245 254 235 243 259 251 246 140 131 218 99 112 122 188 119 148 149 109 102 98 97 100 103 106 108 112 114 105 111 117 121 124 131 133 136 138 150 133 128 135 151
336 337 334 332 331 330 328 326 325 324 322 321 322 320 316 316 313 311 313 312 308 302 302 304 305 307 285 256 251 234 266 119 148 152 170 156 148 160 185 211 177 198 211 223 231 233 243 251 261 283 268 242 282 225 134 154 131 129 130 143 117 178 117 105 102 106 114 113 120 131 129 137 117 111 119 120 117 119 127 135 140 138 145 151 131 135 147 166
337 335 334 332 331 329 326 326 324 322 321 320 320 317 315 317 310 311 311 310 301 296 299 301 294 291 271 262 242 234 252 3 70 163 169 164 172 186 185 207 183 205 199 224 234 233 236 246 255 252 255 336 284 114 237 154 154 137 121 140 142 157 124 124 132 129 121 131 148 137 125 115 131 121 129 118 113 125 132 136 139 138 139 134 135 143 158 177
337 334 332 331 330 329 326 325 322 321 322 319 317 313 313 312 307 306 308 303 288 283 274 286 274 243 305 273 235 242 264 284 285 238 163 169 173 192 195 217 215 207 213 227 242 230 234 246 255 272 276 275 299 189 210 177 105 100 127 108 173 186 146 141 119 131 149 137 137 150 93 102 115 136 138 136 138 142 135 147 144 146 144 136 141 156 168 172
335 333 331 330 329 327 324 322 322 320 319 318 314 313 310 309 304 302 300 287 277 275 275 271 262 253 275 251 281 252 252 249 268 270 167 174 175 186 207 227 237 218 219 236 250 264 267 251 257 269 281 272 271 209 310 100 119 137 160 129 179 153 172 126 140 148 139 156 153 160 113 129 138 145 145 150 150 154 150 147 156 148 139 137 147 162 168 174
333 332 330 328 328 327 327 325 322 319 319 318 315 312 307 305 299 297 292 283 254 254 264 261 231 238 216 267 249 255 245 264 266 257 168 172 184 173 203 223 238 235 222 234 250 262 269 272 268 269 280 300 277 267 241 36 124 128 134 194 128 172 156 129 138 156 140 175 172 115 117 139 150 148 154 150 158 150 155 152 155 154 141 144 150 166 171 175
333 330 328 328 326 326 323 323 321 320 319 319 316 311 303 296 289 285 273 270 290 298 251 249 207 227 315 289 280 254 214 201 251 230 217 200 183 201 186 205 225 241 230 226 244 265 263 282 237 220 266 273 284 286 274 77 154 114 123 171 177 169 175 119 165 143 128 168 170 124 127 138 154 160 155 164 162 158 157 163 162 160 157 156 160 169 176 175
332 329 328 327 329 326 326 323 321 321 321 319 318 309 297 285 268 268 264 248 251 218 210 265 95 166 286 254 347 276 204 203 220 225 227 227 186 206 171 196 216 226 222 244 236 246 265 273 222 277 252 268 259 197 247 162 207 151 145 182 197 173 148 187 159 171 144 187 150 125 140 156 147 165 158 169 165 158 164 170 166 162 167 160 164 174 166 167
330 329 328 328 327 326 323 320 321 322 323 318 317 303 297 300 290 303 227 244 217 212 233 256 265 286 255 257 282 231 215 197 184 228 236 196 213 202 180 195 199 217 205 226 244 247 223 236 157 229 279 246 246 236 166 183 186 152 148 227 156 348 152 184 165 161 151 186 139 139 126 136 152 156 165 170 157 164 168 175 166 167 163 159 167 161 167 176
330 329 329 329 327 324 321 320 320 325 323 318 304 288 291 79 95 229 239 140 158 146 42 178 191 151 248 191 221 251 257 184 168 208 218 197 206 217 185 202 198 197 215 211 192 222 186 269 161 273 245 249 242 235 205 183 168 156 166 190 164 199 170 205 178 184 161 154 130 162 131 140 153 160 161 179 164 165 168 163 159 152 153 161 160 161 168 177
330 328 328 326 325 322 320 318 320 323 331 331 345 340 192 293 35 136 264 256 233 239 266 240 195 249 273 282 276 212 239 154 186 210 197 199 196 211 187 193 190 210 210 197 188 199 164 210 211 213 232 237 243 245 232 209 181 166 172 186 177 190 182 188 192 186 155 138 149 145 140 144 160 164 170 183 175 161 164 169 167 159 160 163 159 168 172 166
327 327 325 326 325 323 319 319 316 320 326 310 303 295 330 317 319 323 299 243 216 232 246 257 220 218 238 261 276 219 227 169 209 183 205 177 210 199 186 181 192 206 216 200 222 177 206 229 228 217 231 240 242 246 249 264 202 181 176 183 186 187 181 185 185 176 159 155 168 134 142 155 153 172 172 186 181 166 169 166 165 165 166 167 172 169 166 162
326 325 326 325 326 323 319 316 315 317 314 268 245 264 276 266 264 276 290 298 292 275 265 258 254 251 249 247 254 250 221 171 212 173 201 175 194 204 147 195 189 206 205 211 232 179 204 219 221 230 229 240 255 256 249 246 252 254 203 185 181 191 195 179 187 163 159 158 158 138 142 152 157 175 171 186 195 174 168 167 166 167 168 172 178 166 152 167
324 323 325 326 325 324 320 316 313 317 307 169 194 254 252 256 277 292 295 281 279 282 267 257 252 257 257 249 254 247 201 174 206 178 186 191 166 214 151 193 195 206 190 212 215 198 202 219 217 219 229 231 241 253 241 245 257 255 246 192 192 183 194 171 194 147 162 152 162 144 145 149 156 173 175 181 198 176 172 167 165 166 169 173 181 168 162 171
323 323 322 326 325 324 321 314 311 296 180 229 266 261 270 293 288 289 309 300 299 287 255 252 256 241 238 237 231 241 182 170 208 179 184 188 199 194 186 183 200 207 203 201 225 222 215 190 220 225 221 229 231 231 243 241 240 252 250 250 199 172 199 160 177 151 156 163 133 123 102 142 153 183 186 187 193 169 172 165 165 169 170 171 176 166 169 168
321 322 323 324 329 324 318 318 315 360 326 308 257 261 281 316 9 355 331 298 257 253 250 246 231 240 242 235 238 235 159 195 200 179 178 192 193 180 216 174 205 207 212 193 223 237 216 209 200 233 230 226 235 224 221 232 260 276 273 228 201 188 172 139 145 144 144 184 152 139 75 220 201 189 188 188 191 183 166 168 171 170 168 170 178 172 175 164
321 320 322 324 327 331 310 310 24 346 326 285 266 322 338 333 359 344 334 285 278 269 226 229 138 217 212 225 215 196 149 221 184 185 175 193 217 210 173 196 200 188 215 194 211 225 229 196 216 216 231 227 233 242 211 213 242 249 249 267 281 298 300 137 149 144 163 184 183 150 147 231 233 197 191 188 185 186 183 176 177 169 171 174 179 171 173 166
319 319 320 322 327 340 349 346 356 324 311 293 341 333 336 323 354 345 321 224 270 221 211 135 164 176 197 188 198 145 199 205 171 191 175 170 213 210 206 202 172 242 200 212 182 217 230 194 208 230 226 230 219 231 236 203 213 243 255 201 252 282 273 173 183 172 159 185 178 170 156 147 192 227 193 159 164 183 199 196 177 172 176 176 180 171 167 168
317 315 316 319 318 331 235 293 318 297 247 263 308 329 321 316 327 290 113 319 261 206 162 164 239 159 206 159 198 179 238 134 188 190 182 156 216 194 234 189 190 206 222 206 211 169 214 217 200 209 230 234 224 215 231 217 204 219 249 187 216 211 241 183 178 168 171 170 220 185 115 61 213 210 174 148 172 212 217 214 218 181 179 178 180 171 167 168
314 312 312 317 319 298 259 221 246 256 251 312 317 311 312 308 295 355 226 264 289 322 346 165 339 147 221 173 190 185 209 183 206 157 170 161 197 210 215 229 211 201 225 230 230 184 211 236 206 212 202 226 245 237 232 218 188 228 255 295 287 239 246 215 185 185 103 156 213 201 164 145 226 185 188 177 196 206 208 208 206 194 183 176 181 176 171 165
311 309 310 317 320 288 126 200 234 242 284 308 301 293 293 291 310 235 224 270 228 246 198 59 234 170 199 187 185 181 204 196 222 158 170 169 190 217 263 232 244 213 214 226 244 226 209 210 232 213 200 199 220 248 244 217 194 279 248 257 261 264 248 84 121 125 69 179 259 214 196 195 159 202 178 170 207 201 202 195 207 197 190 182 183 178 174 163
310 305 304 309 289 300 322 266 245 239 242 275 312 305 297 263 202 213 236 258 306 289 155 149 156 163 182 197 182 177 208 209 208 173 174 164 184 204 219 249 235 251 228 216 222 236 240 201 217 222 195 182 210 227 231 229 171 208 216 222 270 313 2 26 344 68 181 260 249 187 278 167 200 214 206 204 200 194 183 193 197 201 191 186 180 177 170 164
309 304 298 286 247 256 226 244 271 25 2 339 327 314 301 222 198 221 241 159 247 147 196 170 179 180 188 186 203 170 195 216 234 184 181 170 174 195 202 218 183 203 232 205 219 229 241 231 204 219 217 201 192 233 197 197 215 207 222 252 142 232 161 325 31 348 247 220 231 270 231 264 234 187 195 209 206 190 192 189 191 197 194 182 179 178 169 166
309 304 300 279 242 219 228 243 300 329 329 317 310 277 243 210 234 207 246 264 258 172 170 176 168 190 183 170 201 179 189 216 216 217 176 167 194 192 208 223 208 203 189 196 225 196 246 256 209 199 228 217 184 196 177 187 223 185 207 170 158 111 138 177 194 176 307 304 289 269 276 264 251 248 187 197 204 191 185 179 192 191 187 185 184 188 173 173
309 306 298 242 201 209 222 221 239 273 262 277 234 267 237 235 240 236 243 235 254 276 305 213 163 190 184 188 187 192 180 216 205 207 175 164 194 185 206 218 229 211 237 175 222 181 198 224 240 189 206 174 230 187 167 181 182 211 194 187 153 153 153 169 165 181 205 229 235 232 239 210 237 261 194 195 187 169 169 182 187 191 194 189 191 188 177 167
310 298 257 260 224 232 226 216 214 206 238 251 208 219 217 230 256 244 246 246 253 261 263 279 220 179 186 200 193 205 205 186 228 198 178 165 186 205 190 213 219 236 212 229 217 237 212 229 218 231 179 160 211 218 208 184 206 196 195 180 195 218 146 218 191 169 209 218 258 231 219 181 229 233 149 174 160 158 174 183 178 186 194 196 192 187 187 171
309 296 279 262 221 226 192 200 191 213 202 195 198 209 222 214 227 222 249 259 264 268 270 247 228 179 183 194 195 216 182 241 197 231 176 175 177 202 187 205 217 219 210 213 156 215 218 234 213 195 208 167 196 208 225 189 208 209 145 192 190 207 157 195 178 206 252 256 245 243 321 318 11 5 130 125 153 168 177 178 177 180 195 191 190 185 187 185
312 311 295 250 242 215 169 168 173 182 193 201 216 231 223 233 243 259 256 253 262 285 314 308 234 230 169 192 188 210 175 212 199 206 187 173 191 196 200 198 213 219 233 227 200 232 161 235 163 147 202 226 194 197 229 217 218 149 160 200 113 271 239 133 208 236 203 165 249 192 232 230 168 147 201 152 154 178 173 176 180 190 189 188 190 183 186 187
313 288 268 258 244 214 155 158 159 168 171 191 230 248 232 245 236 248 266 283 290 292 290 283 338 291 197 186 187 203 165 197 170 204 220 170 230 174 202 207 194 225 220 228 231 206 219 193 211 170 192 211 181 201 236 252 224 176 192 150 176 191 253 175 88 268 170 210 280 273 247 209 179 153 159 170 163 176 175 177 188 182 177 187 191 193 181 182
264 281 299 263 221 170 151 153 159 153 173 208 229 242 236 251 254 252 265 284 300 311 291 288 297 271 266 195 185 196 177 192 175 209 212 168 213 172 199 198 193 203 223 229 225 253 220 214 230 184 190 172 173 182 222 229 252 200 155 200 174 173 194 190 183 190 126 234 119 283 226 283 214 163 160 182 164 164 154 138 148 168 170 176 187 186 187 181
305 299 260 283 118 125 135 155 156 171 206 222 213 238 252 244 249 259 266 270 278 274 279 290 279 272 254 276 234 188 178 190 185 206 197 145 212 169 197 186 212 183 213 225 230 210 243 210 232 204 179 154 204 172 207 190 182 201 210 166 182 205 143 105 194 183 158 178 163 238 331 293 280 175 158 147 140 149 142 131 134 137 168 180 170 178 177 168
289 249 277 295 108 123 146 158 186 199 223 255 254 251 243 247 257 255 256 253 256 250 260 270 278 281 278 260 246 243 196 190 192 215 181 172 188 179 198 188 202 197 198 220 228 219 233 184 201 184 186 184 201 174 196 203 193 180 176 201 155 183 178 185 282 240 174 130 207 149 224 275 287 157 136 139 148 139 139 140 141 148 183 158 173 162 166 176
309 289 235 58 97 148 156 169 224 209 233 231 232 235 252 260 260 264 272 275 275 277 246 248 253 255 270 284 319 335 324 229 194 210 177 195 184 213 179 206 188 203 183 211 220 217 230 187 172 193 186 190 194 170 188 217 222 209 149 245 211 148 128 111 224 271 205 196 179 150 125 268 257 139 118 126 131 132 135 141 160 184 153 139 157 168 171 176
289 270 294 296 274 212 186 239 222 218 225 240 251 250 254 258 260 263 267 261 267 266 261 253 258 268 259 271 294 296 286 292 266 207 204 185 190 204 175 201 190 202 199 200 208 223 216 227 158 219 197 179 203 186 179 195 221 211 189 207 180 207 190 188 199 188 193 183 166 58 153 220 274 190 132 134 126 128 134 133 147 136 146 121 126 142 173 165
301 290 302 282 293 251 238 232 238 237 242 244 243 256 253 254 252 251 250 258 262 264 268 268 269 253 283 258 252 244 235 282 248 243 217 217 204 193 187 194 191 200 200 159 211 182 235 195 165 53 179 167 223 226 192 186 198 214 209 202 179 183 196 228 247 70 211 197 159 136 188 227 270 188 141 125 131 137 149 155 138 119 131 147 139 148 164 175
286 257 236 282 294 239 236 228 247 257 256 253 246 241 245 247 246 255 262 266 263 265 266 261 266 298 272 271 273 282 289 278 302 290 316 240 238 184 191 192 187 206 197 167 193 144 216 176 169 186 177 173 195 211 210 192 191 188 248 242 180 176 196 192 240 207 187 254 171 139 169 212 192 147 146 151 136 115 130 150 163 153 161 130 137 145 150 158
308 319 304 282 323 287 258 258 253 257 265 271 280 271 252 249 248 243 245 254 258 268 273 286 286 303 302 297 275 268 259 253 265 313 303 330 291 195 201 191 185 202 185 186 180 151 189 171 182 165 168 189 210 199 188 150 164 184 211 246 240 196 183 193 161 185 216 220 197 211 146 174 153 166 158 171 144 149 155 134 128 96 83 135 147 166 169 174
311 256 323 331 330 318 293 229 239 248 258 271 274 279 276 255 245 245 225 247 238 251 256 257 308 281 267 273 286 277 272 269 249 260 350 357 336 326 304 216 180 195 194 187 184 177 145 174 182 162 183 199 200 242 185 171 187 183 190 215 237 240 205 201 174 213 164 117 207 233 155 158 190 187 179 177 173 173 160 146 147 139 143 154 167 169 176 170
249 317 341 12 319 294 327 321 334 320 302 281 259 260 264 268 264 265 276 274 276 259 259 272 272 275 282 282 298 294 292 276 302 317 357 2 8 341 338 272 197 173 173 196 179 183 125 177 194 182 187 211 212 234 235 195 196 193 198 204 207 222 232 221 211 203 159 176 200 225 168 173 190 186 182 179 174 169 173 168 159 149 142 124 114 131 171 191
318 340 309 5 331 315 312 297 296 291 293 289 283 265 257 258 262 257 266 297 290 245 209 266 259 263 267 277 278 282 304 297 292 47 13 4 0 355 314 331 269 161 179 164 177 192 172 175 134 169 210 239 243 245 208 208 175 222 218 209 205 204 218 228 231 210 177 181 204 186 186 181 178 183 183 191 178 155 138 120 106 100 115 132 143 160 177 189
13 341 327 325 289 288 292 304 304 303 297 301 291 280 278 257 252 258 255 261 281 296 243 240 263 262 262 263 269 80 34 21 356 335 356 26 350 338 302 246 264 197 173 175 158 51 189 269 186 121 310 265 250 254 244 243 284 270 257 274 253 231 230 218 226 238 257 258 163 168 170 200 196 180 189 177 139 134 132 124 137 139 140 141 148 164 159 210
322 328 336 316 313 311 316 311 310 304 298 297 282 270 266 269 269 264 269 266 281 281 297 289 271 263 260 258 261 1 15 32 351 354 332 353 311 309 31 310 325 305 188 168 149 110 174 230 224 106 182 313 300 272 229 196 203 242 253 234 249 268 251 214 224 196 220 235 235 184 192 208 231 179 140 137 137 127 134 146 149 155 137 130 161 281 30 136
317 335 329 319 295 303 308 305 298 304 288 318 330 314 284 287 295 294 262 259 267 277 299 313 335 305 257 265 12 356 342 344 0 334 330 304 295 301 296 282 289 282 303 119 118 127 151 118 129 103 169 279 292 308 281 240 207 221 230 231 271 266 282 282 272 269 229 215 215 182 206 198 172 135 108 112 112 104 104 103 88 98 102 107 123 141 155 193